SVA1030 OEJN-OERK

Flight info

Callsign SVA1030
Flight time N/A
Altitude 37000
Route EGREP T532 ORDEM
Aircraft A321/M-SDE3FGHIRWY/LB1

Departure

Time N/A
Airport King Abdulaziz International Airport (OEJN)

Arrival

Time 2026-04-29 14:00
Airport King Khalid International Airport (OERK)
Time Latitude Longitude Altitude Speed Heading
2026-04-29 11:34 24.17384 43.26831 36867 ft 523 kts 71°
2026-04-29 11:34 24.18589 43.30528 36876 ft 523 kts 71°
2026-04-29 11:34 24.21036 43.38037 36885 ft 524 kts 71°
2026-04-29 11:35 24.23487 43.45557 36894 ft 524 kts 71°
2026-04-29 11:35 24.25930 43.53066 36894 ft 524 kts 71°
2026-04-29 11:36 24.28376 43.60594 36891 ft 524 kts 71°
2026-04-29 11:36 24.30798 43.68078 36885 ft 525 kts 71°
2026-04-29 11:37 24.33225 43.75619 36886 ft 525 kts 71°
2026-04-29 11:37 24.35662 43.83165 36888 ft 525 kts 71°
2026-04-29 11:38 24.38095 43.90706 36888 ft 525 kts 71°
2026-04-29 11:38 24.40520 43.98266 36895 ft 525 kts 71°
2026-04-29 11:39 24.42931 44.05772 36892 ft 525 kts 71°
2026-04-29 11:39 24.44144 44.09549 36995 ft 525 kts 71°
2026-04-29 11:39 24.45163 44.13385 37013 ft 523 kts 80°
2026-04-29 11:40 24.46534 44.21222 37003 ft 523 kts 81°
2026-04-29 11:40 24.47883 44.29070 36973 ft 523 kts 81°
2026-04-29 11:41 24.49226 44.36868 36954 ft 523 kts 81°
2026-04-29 11:41 24.50588 44.44696 36911 ft 517 kts 81°
2026-04-29 11:42 24.51256 44.48521 36907 ft 501 kts 81°
2026-04-29 11:42 24.51971 44.52221 36904 ft 492 kts 73°
2026-04-29 11:42 24.53288 44.55678 36913 ft 494 kts 58°
2026-04-29 11:42 24.55319 44.58693 36907 ft 490 kts 41°
2026-04-29 11:43 24.57927 44.61058 36913 ft 483 kts 26°
2026-04-29 11:43 24.60864 44.62632 36915 ft 471 kts 11°
2026-04-29 11:43 24.64013 44.63424 36915 ft 458 kts 357°
2026-04-29 11:43 24.67146 44.63421 36923 ft 444 kts 343°
2026-04-29 11:44 24.70100 44.62699 36920 ft 430 kts 331°
2026-04-29 11:44 24.72770 44.61348 36948 ft 415 kts 319°
2026-04-29 11:44 24.75048 44.59493 36940 ft 401 kts 307°
2026-04-29 11:44 24.76885 44.57258 36936 ft 389 kts 297°
2026-04-29 11:45 24.79185 44.52065 36927 ft 371 kts 278°
2026-04-29 11:45 24.79641 44.46526 36920 ft 361 kts 262°
2026-04-29 11:46 24.78975 44.41104 36908 ft 360 kts 257°
2026-04-29 11:46 24.77963 44.35712 36911 ft 360 kts 256°
2026-04-29 11:47 24.76952 44.30313 36909 ft 360 kts 256°
2026-04-29 11:47 24.75237 44.25176 36911 ft 359 kts 240°
2026-04-29 11:48 24.72029 44.21018 36913 ft 364 kts 223°
2026-04-29 11:48 24.67553 44.18280 36905 ft 377 kts 204°
2026-04-29 11:49 24.62253 44.17487 36874 ft 397 kts 184°
2026-04-29 11:49 24.59485 44.17955 36940 ft 410 kts 173°
2026-04-29 11:49 24.56772 44.19057 36946 ft 423 kts 161°
2026-04-29 11:50 24.54243 44.20807 36945 ft 438 kts 149°
2026-04-29 11:50 24.52074 44.23155 36939 ft 452 kts 135°
2026-04-29 11:50 24.50354 44.26096 36936 ft 465 kts 121°
2026-04-29 11:50 24.49252 44.29473 36933 ft 477 kts 107°
2026-04-29 11:51 24.48881 44.33122 36947 ft 487 kts 91°
2026-04-29 11:51 24.49129 44.36848 36933 ft 491 kts 85°
2026-04-29 11:51 24.50250 44.44257 36912 ft 492 kts 80°
2026-04-29 11:52 24.51740 44.51588 36903 ft 492 kts 75°
2026-04-29 11:52 24.52997 44.55024 36920 ft 493 kts 59°
2026-04-29 11:52 24.54951 44.58099 36906 ft 490 kts 44°
2026-04-29 11:53 24.57472 44.60574 36915 ft 483 kts 28°
2026-04-29 11:53 24.60400 44.62275 36897 ft 471 kts 12°
2026-04-29 11:53 24.63524 44.63119 36896 ft 456 kts 357°
2026-04-29 11:53 24.66636 44.63144 36896 ft 440 kts 343°
2026-04-29 11:54 24.69573 44.62442 36901 ft 425 kts 331°
2026-04-29 11:54 24.72218 44.61121 36931 ft 411 kts 319°
2026-04-29 11:54 24.74485 44.59298 36922 ft 398 kts 308°
2026-04-29 11:54 24.76316 44.57086 36918 ft 386 kts 297°
2026-04-29 11:55 24.78560 44.51971 36908 ft 368 kts 278°
2026-04-29 11:55 24.78977 44.46470 36904 ft 359 kts 262°
2026-04-29 11:56 24.78297 44.41046 36896 ft 358 kts 257°
2026-04-29 11:56 24.77283 44.35682 36901 ft 358 kts 256°
2026-04-29 11:57 24.76286 44.30343 36900 ft 359 kts 256°
2026-04-29 11:57 24.74468 44.25279 36910 ft 358 kts 239°
2026-04-29 11:58 24.71799 44.21801 36903 ft 362 kts 224°
2026-04-29 11:58 24.68980 44.19710 36904 ft 370 kts 212°
2026-04-29 11:58 24.67408 44.18963 36902 ft 375 kts 205°
2026-04-29 11:59 24.62148 44.18082 36871 ft 395 kts 185°
2026-04-29 11:59 24.58497 44.18790 36939 ft 413 kts 170°
2026-04-29 11:59 24.55832 44.20089 36946 ft 427 kts 158°
2026-04-29 12:00 24.51988 44.23690 36936 ft 451 kts 135°
2026-04-29 12:00 24.50287 44.26638 36934 ft 465 kts 121°
2026-04-29 12:00 24.49229 44.30030 36924 ft 476 kts 105°
2026-04-29 12:01 24.48921 44.33674 36917 ft 484 kts 90°
2026-04-29 12:01 24.49627 44.38524 36904 ft 488 kts 80°
2026-04-29 12:01 24.50912 44.45856 36876 ft 490 kts 82°
2026-04-29 12:02 24.51935 44.51965 36881 ft 491 kts 75°
2026-04-29 12:02 24.53176 44.55450 36910 ft 491 kts 58°
2026-04-29 12:02 24.55170 44.58459 36900 ft 485 kts 41°
2026-04-29 12:03 24.57750 44.60782 36888 ft 476 kts 25°
2026-04-29 12:03 24.60693 44.62325 36878 ft 464 kts 10°
2026-04-29 12:03 24.63794 44.63063 36878 ft 450 kts 356°
2026-04-29 12:03 24.66868 44.63021 36887 ft 435 kts 342°
2026-04-29 12:04 24.69722 44.62277 36885 ft 421 kts 329°
2026-04-29 12:04 24.72315 44.60913 36918 ft 407 kts 317°
2026-04-29 12:04 24.74520 44.59060 36912 ft 394 kts 306°
2026-04-29 12:04 24.76294 44.56826 36905 ft 383 kts 296°
2026-04-29 12:05 24.78465 44.51661 36899 ft 366 kts 277°
2026-04-29 12:05 24.78795 44.46190 36898 ft 357 kts 262°
2026-04-29 12:06 24.78080 44.40831 36894 ft 356 kts 257°
2026-04-29 12:06 24.77069 44.35487 36900 ft 357 kts 256°
2026-04-29 12:07 24.75865 44.29238 36898 ft 357 kts 252°
2026-04-29 12:07 24.74174 44.25121 36903 ft 357 kts 238°
2026-04-29 12:08 24.70786 44.21164 36902 ft 364 kts 220°
2026-04-29 12:08 24.66171 44.18720 36901 ft 378 kts 201°
2026-04-29 12:09 24.60817 44.18349 36931 ft 400 kts 180°
2026-04-29 12:09 24.58072 44.19086 36940 ft 414 kts 168°
2026-04-29 12:09 24.55438 44.20478 36943 ft 428 kts 156°
2026-04-29 12:10 24.53059 44.22526 36945 ft 443 kts 142°
2026-04-29 12:10 24.51087 44.25190 36934 ft 457 kts 128°
2026-04-29 12:10 24.49691 44.28361 36930 ft 469 kts 114°
2026-04-29 12:10 24.48988 44.31893 36920 ft 479 kts 98°
2026-04-29 12:11 24.49076 44.35517 36909 ft 485 kts 81°
2026-04-29 12:11 24.49795 44.39146 36901 ft 487 kts 79°
2026-04-29 12:11 24.51071 44.46459 36882 ft 488 kts 83°
2026-04-29 12:12 24.52459 44.53755 36913 ft 490 kts 68°
2026-04-29 12:12 24.54076 44.57030 36905 ft 487 kts 50°
2026-04-29 12:12 24.56393 44.59696 36889 ft 479 kts 32°
2026-04-29 12:13 24.59145 44.61586 36878 ft 468 kts 17°
2026-04-29 12:13 24.62186 44.62710 36876 ft 455 kts
2026-04-29 12:13 24.65285 44.63052 36879 ft 442 kts 349°
2026-04-29 12:13 24.68271 44.62648 36886 ft 427 kts 336°
2026-04-29 12:14 24.71016 44.61576 36884 ft 412 kts 323°
2026-04-29 12:14 24.73414 44.59941 36915 ft 399 kts 311°
2026-04-29 12:14 24.75388 44.57883 36909 ft 387 kts 301°
2026-04-29 12:14 24.76920 44.55499 36906 ft 376 kts 290°
2026-04-29 12:15 24.78564 44.50245 36889 ft 361 kts 272°
2026-04-29 12:15 24.78501 44.44795 36900 ft 355 kts 260°
2026-04-29 12:16 24.77655 44.39441 36895 ft 355 kts 256°
2026-04-29 12:16 24.76640 44.34117 36894 ft 356 kts 256°
2026-04-29 12:17 24.75567 44.28796 36902 ft 356 kts 250°
2026-04-29 12:17 24.73268 44.24050 36904 ft 357 kts 233°
2026-04-29 12:18 24.69516 44.20434 36901 ft 366 kts 215°
2026-04-29 12:18 24.64644 44.18536 36869 ft 383 kts 195°
2026-04-29 12:19 24.61953 44.18383 36870 ft 394 kts 185°
2026-04-29 12:19 24.59205 44.18833 36938 ft 406 kts 173°
2026-04-29 12:19 24.56547 44.19909 36940 ft 420 kts 161°
2026-04-29 12:19 24.54042 44.21662 36944 ft 435 kts 148°
2026-04-29 12:20 24.51883 44.24054 36932 ft 450 kts 135°
2026-04-29 12:20 24.50217 44.27011 36931 ft 463 kts 120°
2026-04-29 12:20 24.49198 44.30401 36923 ft 474 kts 104°
2026-04-29 12:20 24.48946 44.34034 36912 ft 482 kts 89°
2026-04-29 12:21 24.49755 44.41374 36898 ft 487 kts 82°
2026-04-29 12:21 24.51117 44.48615 36885 ft 489 kts 79°
2026-04-29 12:22 24.53318 44.55585 36916 ft 489 kts 56°
2026-04-29 12:22 24.55366 44.58535 36903 ft 484 kts 41°
2026-04-29 12:22 24.57942 44.60849 36891 ft 474 kts 25°
2026-04-29 12:23 24.60881 44.62372 36880 ft 461 kts
2026-04-29 12:23 24.63973 44.63048 36880 ft 447 kts 354°
2026-04-29 12:23 24.66981 44.62937 36885 ft 432 kts 341°
2026-04-29 12:23 24.69840 44.62135 36887 ft 418 kts 329°
2026-04-29 12:24 24.72387 44.60742 36920 ft 404 kts 316°
2026-04-29 12:24 24.74551 44.58860 36912 ft 391 kts 305°
2026-04-29 12:24 24.76279 44.56613 36907 ft 380 kts 295°
2026-04-29 12:24 24.77548 44.54112 36894 ft 370 kts 285°
2026-04-29 12:25 24.78702 44.48733 36895 ft 357 kts 267°
2026-04-29 12:26 24.77898 44.40690 36895 ft 354 kts 257°
2026-04-29 12:26 24.76892 44.35377 36895 ft 355 kts 256°
2026-04-29 12:27 24.75898 44.30049 36897 ft 355 kts 254°
2026-04-29 12:27 24.73964 44.25087 36904 ft 355 kts 237°
2026-04-29 12:28 24.70563 44.21181 36900 ft 362 kts 219°
2026-04-29 12:28 24.65948 44.18809 36898 ft 377 kts 200°
2026-04-29 12:29 24.60598 44.18529 36931 ft 399 kts 179°
2026-04-29 12:29 24.57869 44.19294 36939 ft 412 kts 168°
2026-04-29 12:29 24.55257 44.20707 36943 ft 427 kts 155°
2026-04-29 12:29 24.52906 44.22775 36938 ft 441 kts 142°
2026-04-29 12:30 24.50978 44.25464 36932 ft 455 kts 127°
2026-04-29 12:30 24.49643 44.28605 36929 ft 468 kts 112°
2026-04-29 12:30 24.48981 44.32132 36919 ft 477 kts 97°
2026-04-29 12:30 24.49108 44.35788 36909 ft 483 kts 80°
2026-04-29 12:31 24.49835 44.39398 36903 ft 485 kts 79°
2026-04-29 12:31 24.51098 44.46672 36882 ft 486 kts 83°
2026-04-29 12:32 24.52523 44.53921 36915 ft 488 kts 66°
2026-04-29 12:32 24.54180 44.57150 36902 ft 485 kts 49°
2026-04-29 12:32 24.56489 44.59728 36891 ft 477 kts 32°
2026-04-29 12:32 24.59285 44.61590 36878 ft 465 kts 16°
2026-04-29 12:33 24.62319 44.62661 36876 ft 452 kts
2026-04-29 12:33 24.65400 44.62942 36879 ft 438 kts 348°
2026-04-29 12:33 24.68360 44.62477 36887 ft 423 kts 334°
2026-04-29 12:33 24.71058 44.61348 36900 ft 409 kts 322°
2026-04-29 12:34 24.73397 44.59675 36917 ft 395 kts 310°
2026-04-29 12:34 24.75324 44.57589 36910 ft 383 kts 300°
2026-04-29 12:34 24.76799 44.55200 36900 ft 373 kts 289°
2026-04-29 12:35 24.78339 44.49955 36900 ft 358 kts 271°
2026-04-29 12:35 24.78215 44.44542 36898 ft 353 kts 259°
2026-04-29 12:36 24.77353 44.39223 36898 ft 353 kts 256°
2026-04-29 12:36 24.76334 44.33925 36895 ft 354 kts 256°
2026-04-29 12:37 24.75241 44.28679 36898 ft 354 kts 249°
2026-04-29 12:37 24.72849 44.23978 36902 ft 355 kts 232°
2026-04-29 12:38 24.69036 44.20477 36902 ft 365 kts 214°
2026-04-29 12:38 24.64132 44.18723 36867 ft 382 kts 194°
2026-04-29 12:38 24.61467 44.18649 36866 ft 393 kts 183°
2026-04-29 12:39 24.58734 44.19178 36936 ft 406 kts 172°
2026-04-29 12:39 24.56074 44.20365 36943 ft 421 kts 159°
2026-04-29 12:39 24.53631 44.22220 36944 ft 435 kts 146°
2026-04-29 12:39 24.51554 44.24707 36937 ft 450 kts 132°
2026-04-29 12:40 24.49999 44.27734 36932 ft 463 kts 117°
2026-04-29 12:40 24.49108 44.31164 36922 ft 473 kts 102°
2026-04-29 12:40 24.48993 44.34797 36911 ft 480 kts 88°
2026-04-29 12:41 24.49869 44.42047 36896 ft 485 kts 81°
2026-04-29 12:41 24.51251 44.49304 36882 ft 486 kts 79°
2026-04-29 12:41 24.52115 44.52888 36886 ft 487 kts 68°
2026-04-29 12:42 24.53655 44.56191 36909 ft 486 kts 53°
2026-04-29 12:42 24.55823 44.58992 36898 ft 480 kts 37°
2026-04-29 12:42 24.58484 44.61121 36895 ft 469 kts 21°
2026-04-29 12:42 24.61469 44.62441 36904 ft 458 kts
2026-04-29 12:43 24.64538 44.62942 36899 ft 445 kts 352°
2026-04-29 12:43 24.67570 44.62679 36907 ft 430 kts 338°
2026-04-29 12:43 24.70368 44.61719 36906 ft 415 kts 325°
2026-04-29 12:43 24.72816 44.60183 36940 ft 400 kts 314°
2026-04-29 12:44 24.74864 44.58194 36933 ft 387 kts 302°
2026-04-29 12:44 24.76464 44.55874 36926 ft 376 kts 292°
2026-04-29 12:44 24.77596 44.53325 36918 ft 367 kts 283°
2026-04-29 12:45 24.78459 44.47968 36912 ft 354 kts 264°
2026-04-29 12:45 24.77953 44.42603 36889 ft 352 kts 257°
2026-04-29 12:46 24.76989 44.37307 36898 ft 353 kts 256°
2026-04-29 12:46 24.75989 44.32009 36899 ft 354 kts 257°
2026-04-29 12:47 24.74568 44.26857 36904 ft 353 kts 243°
2026-04-29 12:47 24.71661 44.22564 36903 ft 357 kts 225°
2026-04-29 12:48 24.67417 44.19630 36900 ft 369 kts 207°
2026-04-29 12:48 24.62272 44.18588 36868 ft 389 kts 186°
2026-04-29 12:48 24.59547 44.18944 36935 ft 401 kts 175°
2026-04-29 12:49 24.56861 44.19941 36943 ft 415 kts 163°
2026-04-29 12:49 24.54372 44.21566 36946 ft 429 kts 150°
2026-04-29 12:49 24.52163 44.23840 36937 ft 444 kts 137°
2026-04-29 12:49 24.50429 44.26701 36934 ft 458 kts 122°
2026-04-29 12:50 24.49322 44.30016 36924 ft 469 kts 107°
2026-04-29 12:50 24.48949 44.33599 36914 ft 477 kts 91°
2026-04-29 12:50 24.49350 44.37230 36906 ft 481 kts 80°
2026-04-29 12:51 24.50620 44.44465 36881 ft 483 kts 82°
2026-04-29 12:51 24.51852 44.51732 36884 ft 485 kts 76°
2026-04-29 12:51 24.53033 44.55141 36913 ft 485 kts 59°
2026-04-29 12:52 24.54973 44.58139 36901 ft 480 kts 42°
2026-04-29 12:52 24.57500 44.60471 36888 ft 471 kts 26°
2026-04-29 12:52 24.60399 44.62024 36873 ft 458 kts 10°
2026-04-29 12:52 24.63460 44.62770 36876 ft 444 kts 356°
2026-04-29 12:53 24.66496 44.62737 36881 ft 430 kts 342°
2026-04-29 12:53 24.69346 44.61996 36886 ft 415 kts 329°
2026-04-29 12:53 24.71899 44.60649 36895 ft 401 kts 317°
2026-04-29 12:53 24.74068 44.58811 36911 ft 388 kts 306°
2026-04-29 12:54 24.75799 44.56601 36900 ft 376 kts 295°
2026-04-29 12:54 24.77858 44.51540 36892 ft 359 kts 276°
2026-04-29 12:55 24.78144 44.46145 36892 ft 351 kts 262°
2026-04-29 12:55 24.77424 44.40837 36883 ft 351 kts 257°
2026-04-29 12:56 24.76435 44.35606 36888 ft 352 kts 256°
2026-04-29 12:56 24.75450 44.30323 36896 ft 353 kts 254°
2026-04-29 12:57 24.73532 44.25401 36904 ft 352 kts 237°
2026-04-29 12:57 24.70112 44.21519 36903 ft 359 kts 219°
2026-04-29 12:58 24.65539 44.19217 36897 ft 374 kts 200°
2026-04-29 12:58 24.62930 44.18807 36869 ft 384 kts 189°
2026-04-29 12:58 24.60228 44.18985 36931 ft 397 kts 178°
2026-04-29 12:58 24.57522 44.19794 36940 ft 410 kts 167°
2026-04-29 12:59 24.54957 44.21249 36943 ft 424 kts 154°
2026-04-29 12:59 24.52660 44.23365 36934 ft 439 kts 140°
2026-04-29 12:59 24.50799 44.26083 36935 ft 453 kts 126°
2026-04-29 12:59 24.49529 44.29292 36928 ft 465 kts 111°
2026-04-29 13:00 24.48981 44.32775 36915 ft 474 kts 95°
2026-04-29 13:00 24.49218 44.36403 36905 ft 480 kts 80°
2026-04-29 13:00 24.49893 44.39996 36899 ft 481 kts 81°
2026-04-29 13:01 24.51120 44.47225 36885 ft 483 kts 82°
2026-04-29 13:01 24.52702 44.54378 36915 ft 484 kts 63°
2026-04-29 13:01 24.54477 44.57498 36903 ft 481 kts 46°
2026-04-29 13:02 24.56853 44.59956 36890 ft 472 kts 29°
2026-04-29 13:02 24.59677 44.61692 36876 ft 460 kts 14°
2026-04-29 13:02 24.62710 44.62619 36878 ft 446 kts 359°
2026-04-29 13:02 24.65757 44.62754 36879 ft 432 kts 345°
2026-04-29 13:03 24.68664 44.62161 36885 ft 417 kts 332°
2026-04-29 13:03 24.71283 44.60933 36896 ft 402 kts 320°
2026-04-29 13:03 24.73525 44.59193 36915 ft 389 kts 308°
2026-04-29 13:03 24.75344 44.57057 36904 ft 377 kts 297°
2026-04-29 13:04 24.76708 44.54639 36893 ft 368 kts 288°
2026-04-29 13:04 24.78051 44.49395 36895 ft 354 kts 269°
2026-04-29 13:05 24.77800 44.44043 36877 ft 350 kts 259°
2026-04-29 13:05 24.76913 44.38791 36892 ft 350 kts 256°
2026-04-29 13:06 24.75910 44.33532 36889 ft 352 kts 256°
2026-04-29 13:06 24.74745 44.28313 36894 ft 351 kts 247°
2026-04-29 13:07 24.72220 44.23782 36894 ft 353 kts 230°
2026-04-29 13:07 24.68285 44.20477 36898 ft 364 kts 211°
2026-04-29 13:08 24.63328 44.18961 36868 ft 382 kts 191°
2026-04-29 13:08 24.60637 44.19035 36912 ft 393 kts 180°
2026-04-29 13:08 24.57933 44.19736 36915 ft 407 kts 168°
2026-04-29 13:08 24.55370 44.21066 36920 ft 421 kts 156°
2026-04-29 13:09 24.53021 44.23060 36910 ft 435 kts 143°
2026-04-29 13:09 24.51074 44.25666 36910 ft 449 kts 128°
2026-04-29 13:09 24.49696 44.28790 36906 ft 462 kts 113°
2026-04-29 13:09 24.49027 44.32271 36900 ft 472 kts 97°
2026-04-29 13:10 24.49137 44.35887 36889 ft 478 kts 82°
2026-04-29 13:10 24.50394 44.43065 36871 ft 480 kts 81°
2026-04-29 13:11 24.51581 44.50244 36875 ft 482 kts 82°
2026-04-29 13:11 24.52471 44.53788 36911 ft 483 kts 66°
2026-04-29 13:11 24.54130 44.56975 36898 ft 480 kts 49°
2026-04-29 13:11 24.56448 44.59565 36885 ft 472 kts 32°
2026-04-29 13:12 24.59218 44.61412 36878 ft 461 kts 16°
2026-04-29 13:12 24.62226 44.62455 36869 ft 447 kts
2026-04-29 13:12 24.65275 44.62703 36869 ft 433 kts 347°
2026-04-29 13:12 24.68195 44.62208 36875 ft 418 kts 334°
2026-04-29 13:13 24.70812 44.61076 36885 ft 403 kts 321°
2026-04-29 13:13 24.73103 44.59397 36907 ft 390 kts 309°
2026-04-29 13:13 24.74969 44.57314 36898 ft 378 kts 299°
2026-04-29 13:14 24.77356 44.52359 36884 ft 360 kts 279°
2026-04-29 13:14 24.77905 44.47007 36894 ft 350 kts 263°
2026-04-29 13:15 24.77274 44.41723 36881 ft 349 kts 257°
2026-04-29 13:15 24.76303 44.36521 36883 ft 350 kts 256°
2026-04-29 13:16 24.75321 44.31261 36884 ft 352 kts 257°
2026-04-29 13:16 24.73644 44.26253 36890 ft 350 kts 239°
2026-04-29 13:17 24.70441 44.22205 36893 ft 356 kts 221°
2026-04-29 13:17 24.66021 44.19685 36890 ft 370 kts 202°
2026-04-29 13:18 24.60790 44.19156 36910 ft 391 kts 181°
2026-04-29 13:18 24.58089 44.19803 36916 ft 404 kts 169°
2026-04-29 13:18 24.55487 44.21110 36919 ft 419 kts 157°
2026-04-29 13:18 24.53129 44.23068 36908 ft 433 kts 143°
2026-04-29 13:19 24.51165 44.25637 36906 ft 447 kts 129°
2026-04-29 13:19 24.49757 44.28717 36904 ft 460 kts 114°
2026-04-29 13:19 24.49050 44.32123 36897 ft 469 kts 98°
2026-04-29 13:19 24.49115 44.35723 36888 ft 476 kts 82°
2026-04-29 13:20 24.49754 44.39294 36884 ft 477 kts 81°
2026-04-29 13:20 24.50987 44.46473 36867 ft 479 kts 82°
2026-04-29 13:21 24.52409 44.53621 36901 ft 481 kts 67°
2026-04-29 13:21 24.54023 44.56824 36888 ft 479 kts 49°
2026-04-29 13:21 24.56314 44.59428 36874 ft 471 kts 32°
2026-04-29 13:21 24.59029 44.61266 36861 ft 460 kts 17°
2026-04-29 13:22 24.62023 44.62340 36861 ft 447 kts
2026-04-29 13:22 24.65066 44.62623 36862 ft 432 kts 347°
2026-04-29 13:22 24.67988 44.62152 36870 ft 417 kts 334°
2026-04-29 13:22 24.70641 44.61018 36878 ft 402 kts 321°
2026-04-29 13:23 24.72928 44.59347 36902 ft 389 kts 309°
2026-04-29 13:23 24.74798 44.57266 36884 ft 377 kts 299°
2026-04-29 13:23 24.76216 44.54894 36883 ft 367 kts 289°
2026-04-29 13:24 24.77653 44.49706 36888 ft 352 kts 270°
2026-04-29 13:24 24.77467 44.44393 36855 ft 347 kts 259°
2026-04-29 13:25 24.76599 44.39165 36871 ft 348 kts 256°
2026-04-29 13:25 24.74950 44.34192 36878 ft 348 kts 239°
2026-04-29 13:25 24.73517 44.32038 36878 ft 351 kts 231°
2026-04-29 13:26 24.69748 44.28634 36872 ft 360 kts 214°
2026-04-29 13:26 24.64921 44.26906 36875 ft 377 kts 193°
2026-04-29 13:27 24.62262 44.26865 36877 ft 389 kts 182°
2026-04-29 13:27 24.59566 44.27447 36890 ft 401 kts 171°
2026-04-29 13:27 24.56962 44.28676 36896 ft 415 kts 158°
2026-04-29 13:27 24.54582 44.30561 36896 ft 430 kts 145°
2026-04-29 13:28 24.52578 44.33065 36893 ft 444 kts 131°
2026-04-29 13:28 24.51121 44.36094 36889 ft 457 kts 115°
2026-04-29 13:28 24.50362 44.39468 36881 ft 467 kts 99°
2026-04-29 13:28 24.50365 44.43056 36855 ft 474 kts 84°
2026-04-29 13:29 24.51646 44.50182 36856 ft 477 kts 81°
2026-04-29 13:29 24.52830 44.57389 36885 ft 485 kts 82°
2026-04-29 13:30 24.54019 44.64742 36887 ft 494 kts 82°
2026-04-29 13:30 24.55281 44.72170 36889 ft 500 kts 81°
2026-04-29 13:31 24.55926 44.75873 36866 ft 486 kts 81°
2026-04-29 13:31 24.56555 44.79479 36589 ft 477 kts 82°
2026-04-29 13:31 24.57171 44.83050 35964 ft 479 kts 82°
2026-04-29 13:31 24.57786 44.86675 35250 ft 484 kts 82°
2026-04-29 13:32 24.58400 44.90325 34677 ft 489 kts 82°
2026-04-29 13:32 24.59027 44.94064 34080 ft 511 kts 82°
2026-04-29 13:32 24.59675 44.97932 33444 ft 527 kts 82°
2026-04-29 13:32 24.60346 45.01897 32753 ft 530 kts 82°
2026-04-29 13:33 24.61022 45.05877 32089 ft 528 kts 82°
2026-04-29 13:33 24.61693 45.09837 31455 ft 526 kts 82°
2026-04-29 13:33 24.62359 45.13781 30808 ft 524 kts 82°
2026-04-29 13:33 24.63015 45.17712 30199 ft 522 kts 82°
2026-04-29 13:34 24.63667 45.21632 29527 ft 520 kts 82°
2026-04-29 13:34 24.64318 45.25536 28815 ft 518 kts 82°
2026-04-29 13:34 24.64966 45.29421 28122 ft 515 kts 82°
2026-04-29 13:34 24.65600 45.33233 27457 ft 512 kts 82°
2026-04-29 13:35 24.66237 45.37065 26787 ft 509 kts 82°
2026-04-29 13:35 24.66869 45.40867 26125 ft 499 kts 82°
2026-04-29 13:35 24.67481 45.44557 25399 ft 483 kts 82°
2026-04-29 13:35 24.68071 45.48126 24702 ft 468 kts 82°
2026-04-29 13:36 24.68648 45.51615 24013 ft 459 kts 82°
2026-04-29 13:36 24.69214 45.55042 23325 ft 452 kts 82°
2026-04-29 13:36 24.69772 45.58424 22494 ft 445 kts 82°
2026-04-29 13:36 24.70321 45.61746 21716 ft 438 kts 82°
2026-04-29 13:37 24.70852 45.64972 20956 ft 432 kts 83°
2026-04-29 13:37 24.71389 45.68194 20205 ft 426 kts 82°
2026-04-29 13:37 24.72005 45.71354 19479 ft 420 kts 80°
2026-04-29 13:37 24.72697 45.74447 18766 ft 414 kts 78°
2026-04-29 13:38 24.73429 45.77502 18052 ft 409 kts 78°
2026-04-29 13:38 24.74161 45.80503 17260 ft 406 kts 78°
2026-04-29 13:38 24.74877 45.83495 16479 ft 404 kts 78°
2026-04-29 13:38 24.75596 45.86474 15716 ft 402 kts 74°
2026-04-29 13:39 24.76794 45.89199 14974 ft 402 kts 55°
2026-04-29 13:39 24.78658 45.91457 14258 ft 397 kts 40°
2026-04-29 13:39 24.80726 45.93462 13559 ft 395 kts 40°
2026-04-29 13:39 24.82771 45.95434 13048 ft 384 kts 40°
2026-04-29 13:40 24.84751 45.97341 12869 ft 375 kts 39°
2026-04-29 13:40 24.86708 45.99224 12644 ft 373 kts 40°
2026-04-29 13:40 24.88694 46.01038 12395 ft 369 kts 32°
2026-04-29 13:40 24.90963 46.02283 12157 ft 363 kts 19°
2026-04-29 13:41 24.93292 46.03328 11921 ft 360 kts 19°
2026-04-29 13:41 24.95574 46.04348 11680 ft 358 kts 20°
2026-04-29 13:41 24.97881 46.05380 11441 ft 357 kts 19°
2026-04-29 13:41 25.00178 46.06406 11197 ft 355 kts 20°
2026-04-29 13:42 25.02464 46.07429 10961 ft 354 kts 20°
2026-04-29 13:42 25.04728 46.08443 10742 ft 352 kts 20°
2026-04-29 13:42 25.06991 46.09457 10506 ft 350 kts 20°
2026-04-29 13:42 25.09243 46.10469 10269 ft 347 kts 20°
2026-04-29 13:43 25.11468 46.11470 10035 ft 345 kts 21°
2026-04-29 13:43 25.13651 46.12454 9805 ft 339 kts 21°
2026-04-29 13:43 25.15795 46.13418 9555 ft 328 kts 21°
2026-04-29 13:43 25.17885 46.14357 9293 ft 319 kts 21°
2026-04-29 13:44 25.19913 46.15271 9046 ft 312 kts 21°
2026-04-29 13:44 25.21916 46.16175 8790 ft 309 kts 21°
2026-04-29 13:44 25.23899 46.17068 8552 ft 306 kts 21°
2026-04-29 13:44 25.25862 46.17949 8307 ft 304 kts 21°
2026-04-29 13:45 25.27816 46.18827 8065 ft 303 kts 21°
2026-04-29 13:45 25.29761 46.19700 7818 ft 301 kts 21°
2026-04-29 13:45 25.31658 46.20556 7579 ft 294 kts 22°
2026-04-29 13:45 25.33523 46.21401 7343 ft 285 kts 22°
2026-04-29 13:46 25.35329 46.22220 7108 ft 276 kts 22°
2026-04-29 13:46 25.37083 46.23013 6872 ft 268 kts 24°
2026-04-29 13:46 25.38782 46.23791 6638 ft 260 kts 27°
2026-04-29 13:46 25.40299 46.24813 6410 ft 251 kts 39°
2026-04-29 13:47 25.41535 46.26129 6165 ft 243 kts 53°
2026-04-29 13:47 25.42469 46.27644 5917 ft 236 kts 63°
2026-04-29 13:47 25.43280 46.29200 5672 ft 231 kts 60°
2026-04-29 13:47 25.44080 46.30720 5424 ft 226 kts 61°
2026-04-29 13:48 25.44852 46.32186 5186 ft 221 kts 62°
2026-04-29 13:48 25.45351 46.33751 4987 ft 212 kts 83°
2026-04-29 13:48 25.45282 46.35329 4902 ft 200 kts 103°
2026-04-29 13:48 25.44730 46.36726 4906 ft 201 kts 123°
2026-04-29 13:49 25.43750 46.37837 4911 ft 205 kts 144°
2026-04-29 13:49 25.42506 46.38645 4913 ft 211 kts 147°
2026-04-29 13:49 25.41215 46.39467 4907 ft 215 kts 146°
2026-04-29 13:49 25.39925 46.40290 4907 ft 215 kts 148°
2026-04-29 13:50 25.38623 46.41120 4905 ft 216 kts 148°
2026-04-29 13:50 25.37319 46.41950 4906 ft 215 kts 146°
2026-04-29 13:50 25.36040 46.42765 4909 ft 215 kts 147°
2026-04-29 13:50 25.34740 46.43592 4900 ft 215 kts 146°
2026-04-29 13:51 25.33442 46.44416 4898 ft 215 kts 147°
2026-04-29 13:51 25.32145 46.45241 4899 ft 216 kts 147°
2026-04-29 13:51 25.30843 46.46069 4905 ft 216 kts 147°
2026-04-29 13:51 25.29543 46.46894 4902 ft 215 kts 147°
2026-04-29 13:52 25.28240 46.47719 4901 ft 216 kts 147°
2026-04-29 13:52 25.26971 46.48598 4884 ft 214 kts 134°
2026-04-29 13:52 25.26164 46.49953 4891 ft 212 kts 116°
2026-04-29 13:52 25.25439 46.51370 4909 ft 213 kts 118°
2026-04-29 13:53 25.24638 46.52709 4905 ft 213 kts 129°
2026-04-29 13:53 25.23503 46.53761 4908 ft 215 kts 143°
2026-04-29 13:53 25.22227 46.54633 4916 ft 216 kts 146°
2026-04-29 13:53 25.20923 46.55465 4914 ft 217 kts 148°
2026-04-29 13:54 25.19617 46.56292 4915 ft 216 kts 147°
2026-04-29 13:54 25.18316 46.57119 4923 ft 217 kts 148°
2026-04-29 13:54 25.17008 46.57949 4933 ft 217 kts 148°
2026-04-29 13:54 25.15707 46.58776 4918 ft 212 kts 148°
2026-04-29 13:55 25.14486 46.59549 4918 ft 200 kts 148°
2026-04-29 13:55 25.13280 46.60315 4920 ft 194 kts 147°
2026-04-29 13:55 25.12127 46.61048 4810 ft 197 kts 148°
2026-04-29 13:55 25.10918 46.61816 4395 ft 204 kts 148°
2026-04-29 13:56 25.09695 46.62591 4157 ft 200 kts 148°
2026-04-29 13:56 25.08515 46.63338 3984 ft 189 kts 147°
2026-04-29 13:56 25.07415 46.64035 3932 ft 175 kts 147°
2026-04-29 13:56 25.06374 46.64696 3884 ft 171 kts 147°
2026-04-29 13:57 25.05341 46.65347 3725 ft 170 kts 147°
2026-04-29 13:57 25.04325 46.65988 3541 ft 168 kts 147°
2026-04-29 13:57 25.03335 46.66616 3343 ft 161 kts 144°
2026-04-29 13:57 25.02693 46.67032 3203 ft 154 kts 146°
2026-04-29 13:58 25.01493 46.67792 2895 ft 149 kts 145°
2026-04-29 13:58 25.00594 46.68351 2708 ft 146 kts 145°
2026-04-29 13:58 24.99725 46.68910 2527 ft 144 kts 144°
2026-04-29 13:58 24.98857 46.69468 2255 ft 146 kts 147°
2026-04-29 13:59 24.97988 46.70009 2130 ft 144 kts 147°
2026-04-29 13:59 24.97130 46.70549 2038 ft 137 kts 146°
2026-04-29 13:59 24.96411 46.71019 2035 ft 96 kts 150°
2026-04-29 13:59 24.95980 46.71277 2033 ft 53 kts 150°
2026-04-29 14:00 24.95744 46.71406 2035 ft 29 kts 164°
2026-04-29 14:00 24.95613 46.71426 2039 ft 11 kts 180°
2026-04-29 14:00 24.95559 46.71395 2034 ft 8 kts 208°
2026-04-29 14:00 24.95510 46.71381 2034 ft 7 kts 197°
2026-04-29 14:01 24.95477 46.71349 2037 ft 9 kts 232°
2026-04-29 14:01 24.95417 46.71239 2035 ft 13 kts 239°
2026-04-29 14:01 24.95349 46.71199 2040 ft 11 kts 165°
2026-04-29 14:01 24.95286 46.71236 2036 ft 10 kts 150°
2026-04-29 14:02 24.95205 46.71286 2034 ft 19 kts 150°
2026-04-29 14:02 24.95060 46.71378 2035 ft 22 kts 149°
2026-04-29 14:02 24.94930 46.71463 2039 ft 22 kts 149°
2026-04-29 14:02 24.94822 46.71533 2035 ft 13 kts 150°
2026-04-29 14:03 24.94743 46.71536 2032 ft 11 kts 218°
2026-04-29 14:03 24.94703 46.71469 2037 ft 10 kts 242°
2026-04-29 14:03 24.94672 46.71405 2037 ft 9 kts 242°
2026-04-29 14:03 24.94643 46.71349 2036 ft 8 kts 240°
2026-04-29 14:04 24.94617 46.71299 2034 ft 7 kts 239°
2026-04-29 14:04 24.94586 46.71270 2034 ft 5 kts 205°
2026-04-29 14:04 24.94542 46.71279 2041 ft 9 kts 153°
2026-04-29 14:04 24.94487 46.71310 2034 ft 9 kts 152°
2026-04-29 14:05 24.94436 46.71341 2032 ft 8 kts 148°
2026-04-29 14:05 24.94391 46.71362 2035 ft 6 kts 193°
2026-04-29 14:05 24.94370 46.71332 2040 ft 5 kts 241°
2026-04-29 14:05 24.94355 46.71303 2039 ft 4 kts 239°
2026-04-29 14:06 24.94348 46.71290 2040 ft 1 kts 239°
2026-04-29 14:06 24.94347 46.71289 2039 ft 0 kts 239°
2026-04-29 14:06 24.94347 46.71288 2039 ft 0 kts 239°